Wind_Speed
12 19 28 30 27 24 21 21 21 19 19 18 15 15 14 13 16 15 20 8 14 26 48 41 40 41 39 38 38 36 36 32 38 35 29 26 23 24 25 21 23 25 17
13 25 32 30 28 25 23 22 22 20 19 18 15 14 13 18 19 16 19 13 10 11 48 44 41 41 38 38 40 40 35 32 34 25 26 5 9 17 19 20 20 22 19
16 22 29 30 29 26 24 23 25 22 21 20 18 15 15 16 15 20 24 15 11 13 40 48 43 41 42 42 42 42 44 37 25 39 17 6 4 12 11 18 17 20 21
21 22 28 28 29 29 27 25 25 24 22 20 19 18 18 15 13 19 17 24 16 14 7 50 46 45 41 42 42 41 43 43 34 29 29 8 23 7 5 11 17 15 19
23 24 29 30 30 30 28 27 26 26 24 22 23 22 20 21 19 17 20 21 23 14 17 42 48 46 43 42 43 41 41 39 41 28 25 14 31 18 10 6 10 15 15
22 26 33 33 31 29 29 27 27 29 25 24 24 24 25 21 19 17 17 18 20 15 14 36 50 48 45 44 42 44 42 37 36 27 24 24 28 22 22 16 17 15 13
23 23 24 28 30 31 30 29 28 28 27 25 25 25 26 24 24 22 21 17 22 13 18 38 49 47 45 44 41 41 40 38 38 33 26 23 26 22 20 24 22 16 14
22 24 25 29 31 32 31 31 30 30 29 27 28 27 28 25 27 24 21 20 27 10 15 41 47 48 46 45 43 40 37 37 36 33 28 25 22 26 23 26 34 9 7
25 25 28 29 31 33 33 32 31 29 31 30 29 29 29 29 27 25 23 24 26 17 13 28 45 50 47 47 45 39 36 35 35 32 30 26 25 25 23 31 32 18 6
28 25 25 32 32 33 32 31 33 32 31 31 30 30 30 29 28 27 25 26 29 22 16 21 39 50 49 48 46 38 36 36 33 33 32 26 29 29 27 33 30 15 13
30 27 26 35 34 33 32 31 30 30 29 30 30 31 31 30 30 27 28 29 29 27 16 23 38 46 50 48 45 39 38 36 33 32 33 28 30 28 29 28 28 16 15
31 28 28 34 33 32 32 31 29 29 29 30 30 31 31 31 31 30 29 29 30 30 20 16 37 40 49 49 47 42 40 38 36 34 32 29 31 27 28 28 26 23 17
31 27 25 20 31 33 30 29 29 29 28 28 30 31 33 32 32 30 29 28 27 32 31 18 27 38 47 47 46 44 43 39 36 38 36 32 34 29 28 28 27 24 19
29 28 22 25 31 33 31 29 29 28 27 27 30 32 33 34 33 30 29 30 27 34 38 21 30 38 41 46 45 43 41 38 36 37 36 36 38 36 32 29 29 28 23
31 27 27 25 27 30 29 27 26 27 26 28 30 34 33 31 30 30 29 28 27 34 30 24 33 37 36 44 44 42 41 38 35 35 35 36 39 37 33 32 31 31 26
34 33 29 29 25 27 26 24 23 24 25 27 29 32 31 31 31 32 30 29 29 31 27 32 38 36 34 40 46 45 42 39 37 36 32 32 37 37 32 28 26 30 34
34 32 31 27 26 30 28 21 21 23 25 27 29 33 31 30 29 30 29 31 31 30 32 37 40 37 35 40 48 46 42 40 37 36 35 33 37 39 34 28 23 23 25
33 32 26 26 39 38 29 19 19 23 25 27 28 31 30 29 29 31 30 30 31 36 37 36 40 38 35 40 49 47 40 38 37 38 39 38 39 41 39 32 27 25 23
28 28 38 40 40 33 26 17 20 23 24 25 27 31 30 29 33 32 29 30 27 34 41 41 41 42 34 40 48 45 35 34 35 38 39 40 40 43 43 37 32 28 25
41 38 43 39 32 30 21 14 19 22 21 25 28 28 29 29 33 33 30 33 32 33 37 39 40 44 39 39 50 46 33 32 31 32 37 38 40 43 46 43 39 35 31
42 45 40 32 33 33 25 12 12 16 25 29 30 28 28 31 30 34 31 33 33 34 33 34 35 38 39 44 51 49 33 34 35 35 36 37 38 41 44 44 41 39 36
44 46 37 34 37 35 31 19 6 13 23 25 25 26 31 26 27 33 34 33 31 32 30 30 29 30 35 44 48 51 33 35 36 37 40 43 42 40 43 43 38 35 37
39 46 40 35 39 39 34 24 23 1 18 23 24 18 18 26 33 34 33 32 34 32 27 27 27 26 32 39 48 52 33 33 32 33 37 43 43 40 40 39 40 38 41
34 44 37 33 37 44 38 31 29 2 7 6 15 25 24 28 33 32 33 31 27 25 23 24 23 25 28 32 39 41 32 31 26 28 30 31 39 36 33 33 37 38 41
38 36 35 34 36 37 38 35 28 7 22 22 12 20 29 29 27 25 23 25 26 33 30 25 27 29 26 34 41 43 38 35 32 31 29 34 35 34 37 36 35 36 36
43 38 41 41 45 44 41 44 44 31 16 14 22 23 25 24 25 24 24 22 25 26 29 32 36 32 31 44 47 47 42 40 36 31 32 30 33 32 34 37 35 37 37
Wind_Direction
324 324 334 331 324 317 315 309 308 306 305 305 307 311 307 302 287 292 286 291 354 205 168 166 165 160 160 158 153 146 140 135 137 118 102 107 118 123 123 131 130 128 118
320 333 333 329 323 315 312 307 304 300 296 294 291 285 287 294 288 284 276 289 346 232 166 166 165 164 160 159 156 151 143 145 150 140 126 122 99 114 125 129 131 132 121
325 334 328 324 319 312 309 305 299 295 290 287 285 280 280 279 287 279 266 275 266 300 180 168 165 164 161 161 158 155 152 153 159 152 149 138 166 134 128 131 133 137 128
328 331 325 320 315 309 305 299 293 290 286 281 277 270 268 264 249 258 258 255 266 276 220 168 168 164 165 162 161 160 157 154 157 173 166 151 155 150 147 146 136 152 143
330 328 323 321 312 305 301 297 290 286 281 276 268 265 254 251 251 256 255 251 262 271 255 179 169 166 166 165 162 162 163 164 163 172 167 149 160 163 158 146 156 143 152
330 326 323 318 310 306 299 293 288 283 277 271 263 257 257 254 262 257 250 241 260 269 240 190 169 168 168 166 167 166 165 168 167 166 161 158 169 170 159 152 155 145 152
327 325 321 317 311 305 298 293 284 278 275 268 258 252 249 247 247 239 239 222 238 237 206 192 170 170 170 168 168 168 168 170 169 169 165 164 168 166 163 158 157 149 152
327 322 318 314 311 305 299 292 286 281 273 262 256 252 250 242 242 240 230 220 233 204 200 192 173 169 170 168 169 170 171 172 170 168 167 163 171 167 167 165 158 141 148
323 319 315 314 309 306 298 293 285 275 272 262 255 249 246 239 235 236 231 225 223 201 231 195 180 169 170 169 170 172 173 173 171 168 168 168 164 170 170 164 166 153 153
319 316 314 311 307 300 298 291 281 273 266 259 249 245 242 237 231 228 225 221 220 211 232 207 192 168 170 170 171 173 173 172 172 170 167 170 175 170 172 169 173 177 151
316 313 310 307 301 299 296 289 280 271 261 257 244 239 238 233 228 222 221 213 210 203 223 204 190 176 171 172 172 171 173 171 170 171 169 170 177 167 171 174 182 183 160
309 307 306 304 300 302 297 289 279 266 256 252 243 232 234 230 226 223 215 209 210 203 209 180 192 188 172 173 173 169 174 171 170 170 171 171 176 175 176 176 175 174 172
307 307 306 301 306 300 293 286 275 263 253 244 242 228 226 223 223 220 214 205 205 208 215 221 201 193 177 174 174 173 176 175 173 171 173 175 178 175 173 174 173 177 169
310 309 306 309 302 298 292 283 271 255 246 236 234 227 221 218 216 216 208 205 205 204 207 218 201 192 182 175 173 173 176 173 174 178 177 179 183 184 181 178 176 177 166
309 315 313 310 305 298 291 283 263 249 237 228 227 224 217 214 210 210 206 199 205 200 200 213 192 188 190 179 174 173 175 172 172 178 179 185 190 192 188 183 181 178 169
318 317 314 312 307 301 290 278 257 241 226 221 223 223 210 207 204 204 200 192 202 188 194 191 187 188 192 187 177 174 173 172 172 174 179 183 191 194 192 192 190 189 183
316 317 316 313 307 304 296 274 248 228 220 214 216 220 204 200 199 199 194 195 195 187 187 183 183 185 187 190 182 176 173 172 175 174 175 179 190 194 189 190 190 193 200
320 319 316 314 315 307 296 269 230 215 211 207 216 217 196 194 196 195 191 193 191 184 177 180 183 182 185 192 187 177 173 174 176 178 179 185 188 195 192 186 182 186 190
320 318 316 316 310 305 293 249 208 200 201 203 211 209 191 190 193 195 194 190 188 180 179 177 180 187 182 188 189 177 171 173 175 181 184 192 192 196 198 191 184 180 183
326 325 328 323 319 322 316 191 180 182 193 203 210 202 190 190 191 189 200 197 196 178 180 174 179 182 183 186 190 180 173 171 171 176 187 194 198 197 199 194 188 181 181
326 330 334 335 335 343 355 159 179 179 197 210 194 187 188 193 188 188 203 184 172 168 169 169 177 181 186 185 190 184 178 175 173 174 183 189 200 201 200 200 195 192 181
333 339 340 343 347 358 7 7 154 189 175 173 178 189 183 195 191 201 164 156 153 156 157 161 167 173 189 193 192 187 187 181 177 180 190 197 202 204 199 199 197 192 179
336 339 342 347 1 5 11 6 346 48 163 170 170 185 216 206 193 151 150 151 152 151 154 160 163 159 173 183 189 188 192 188 184 188 192 200 201 200 193 190 198 190 182
344 339 345 353 358 360 3 1 357 317 147 154 225 261 219 158 145 150 151 152 151 145 162 161 156 157 163 167 185 186 187 182 182 183 183 188 182 175 172 179 180 185 184
344 347 346 351 358 3 2 1 2 352 221 243 182 154 121 122 125 131 149 149 154 167 162 164 162 161 167 185 186 178 181 185 184 173 158 153 155 157 163 172 178 180 178
343 351 351 358 358 0 7 8 3 19 157 144 94 100 107 108 115 120 114 138 155 168 179 180 180 176 182 183 188 185 183 181 182 163 155 159 161 163 162 164 168 176 176
Height
811 809 807 805 801 798 796 793 791 789 786 781 779 776 773 774 769 761 769 764 763 764 772 784 793 799 807 815 824 832 839 849 853 857 873 880 884 888 891 895 896 900 904
807 805 803 802 799 796 793 791 788 786 784 781 779 778 775 764 770 762 765 761 756 762 766 778 787 796 805 813 820 826 836 847 851 856 866 883 892 892 894 897 898 901 906
804 803 801 798 796 792 790 788 785 782 780 778 776 774 773 770 763 761 764 759 761 760 764 771 780 791 800 808 814 821 827 841 853 854 856 873 880 890 897 898 900 903 907
802 801 799 796 793 789 786 783 781 778 776 773 771 769 765 769 770 772 760 766 759 759 760 764 776 786 797 805 810 818 825 831 844 855 858 859 865 872 895 899 901 904 906
800 798 795 792 789 784 780 777 775 772 770 768 767 766 768 767 770 759 759 754 759 758 756 762 771 782 792 801 806 816 824 829 836 847 855 859 865 872 879 891 900 903 907
797 795 792 788 783 779 775 771 768 765 764 762 760 758 756 754 750 752 749 748 752 755 753 762 765 777 786 795 805 811 820 829 836 844 851 856 859 865 872 883 894 900 906
794 791 787 783 778 773 768 763 760 756 755 755 753 752 751 750 750 754 754 744 755 754 750 760 761 773 781 791 802 810 818 826 833 839 847 855 860 865 870 879 890 898 906
791 787 783 779 773 766 761 756 752 748 747 747 745 745 744 745 743 744 749 741 750 745 749 757 758 766 778 787 798 807 816 824 830 837 845 852 858 863 866 872 879 896 903
786 782 776 771 766 760 753 748 744 741 739 738 737 736 736 736 735 735 738 741 743 741 747 752 757 759 772 781 794 803 812 821 828 835 843 850 855 861 865 870 876 880 892
778 773 766 760 756 750 744 739 734 730 728 727 728 726 727 728 730 733 730 733 740 739 744 747 754 754 767 777 790 799 809 818 825 832 839 847 852 858 862 867 874 879 881
768 762 757 751 744 739 734 729 723 719 717 717 718 717 717 720 722 725 728 732 735 734 739 743 749 754 761 773 785 794 804 813 821 829 836 844 850 855 859 865 871 876 879
763 754 747 739 732 727 722 717 712 709 707 707 706 707 709 711 713 714 721 722 726 726 735 737 748 753 756 767 778 787 800 807 815 823 833 841 847 852 856 861 868 873 875
752 744 735 729 722 714 709 704 700 697 696 697 696 696 697 699 702 705 709 713 715 721 729 736 743 750 753 762 772 780 794 802 810 817 827 836 841 848 853 858 864 870 874
746 736 725 718 710 702 695 690 686 684 684 684 685 684 686 689 691 697 702 708 708 716 726 731 738 747 750 756 764 776 790 798 806 814 823 829 834 841 848 854 861 866 871
738 727 717 705 695 687 681 676 672 671 672 673 674 673 677 680 686 690 695 700 706 709 716 728 734 742 748 754 761 772 785 793 801 812 821 825 831 838 843 849 857 863 868
726 716 705 693 680 672 666 662 658 658 661 662 663 665 668 674 679 685 690 694 702 701 712 721 730 742 747 753 757 767 779 787 795 806 818 823 829 836 841 848 853 857 861
723 708 695 681 668 657 652 648 646 647 650 653 655 654 659 664 671 678 682 689 695 698 707 718 727 738 746 752 758 764 773 781 791 801 812 817 825 833 839 847 853 857 862
717 700 686 670 656 645 637 635 636 637 640 643 647 647 653 660 667 672 677 683 689 695 702 714 723 732 738 750 757 761 769 778 787 796 805 809 819 827 834 843 850 855 860
714 701 684 667 649 635 625 622 624 629 633 636 638 641 647 655 662 665 672 678 685 690 698 707 721 728 732 743 755 761 768 777 784 793 800 805 813 822 830 838 844 851 857
707 693 676 660 643 626 612 610 614 620 625 630 633 636 643 650 655 661 666 674 682 686 697 703 715 724 729 737 751 760 766 773 782 790 797 802 808 817 825 831 837 843 851
705 687 673 659 641 623 606 607 609 613 620 626 631 635 639 648 651 659 664 669 676 683 692 699 711 719 726 733 744 756 761 768 777 783 792 799 806 812 821 827 832 836 845
692 684 671 658 643 627 614 608 608 609 615 621 627 632 639 644 649 654 657 664 671 680 690 700 708 714 720 729 740 753 760 765 770 776 785 792 800 808 816 825 830 836 844
703 686 671 659 646 635 627 621 616 614 616 620 626 630 635 639 643 644 652 662 671 681 690 698 705 713 722 728 738 749 760 764 769 775 781 787 797 806 814 821 825 832 841
713 690 681 665 651 638 633 627 620 614 619 623 627 628 631 628 636 645 653 661 666 675 690 693 699 707 718 728 735 744 754 760 766 773 782 788 796 805 812 820 825 830 837
720 706 689 675 665 656 643 636 633 625 628 625 619 620 621 627 639 647 655 656 662 673 681 690 695 702 713 719 727 737 747 753 761 770 780 788 796 801 807 816 822 828 836
715 707 690 680 666 656 648 640 626 628 629 626 619 620 629 636 644 651 656 661 668 677 684 688 693 705 711 715 725 732 742 749 757 765 777 785 791 797 802 808 818 826 831